This is the latest recevied weather packets stored in our database for station/object WY1B. If no packets are shown the sender has not sent any weather packets the latest 10 day(s).
| Time | Temp. | Humidity | Pressure | Rain* | Wind** | Luminosity | Snow |
|---|---|---|---|---|---|---|---|
| 1787990757 | 33.89° C | 41% | 1003.9 hPa | 0 mm | - | 0 W/m² | - |
| 1787990453 | 34.44° C | 39% | 1003.8 hPa | 0 mm | - | 0 W/m² | - |
| 1787990151 | 34.44° C | 40% | 1003.7 hPa | 0 mm | - | 0 W/m² | - |
| 1787989851 | 35° C | 40% | 1004 hPa | 0 mm | - | 0 W/m² | - |
| 1787989547 | 35.56° C | 35% | 1004 hPa | 0 mm | - | 0 W/m² | - |
| 1787989245 | 35.56° C | 33% | 1004 hPa | 0 mm | - | 0 W/m² | - |
| 1787988944 | 35.56° C | 33% | 1004.1 hPa | 0 mm | - | 0 W/m² | - |
| 1787988645 | 35.56° C | 33% | 1004.2 hPa | 0 mm | - | 0 W/m² | - |
| 1787988342 | 35.56° C | 34% | 1004.3 hPa | 0 mm | - | 0 W/m² | - |
| 1787988041 | 36.11° C | 33% | 1004.4 hPa | 0 mm | - | 0 W/m² | - |
| 1787987737 | 36.11° C | 31% | 1004.1 hPa | 0 mm | - | 0 W/m² | - |
| 1787987436 | 36.11° C | 30% | 1004.2 hPa | 0 mm | - | 0 W/m² | - |
| 1787987131 | 35.56° C | 31% | 1004 hPa | 0 mm | - | 0 W/m² | - |
| 1787986826 | 35.56° C | 31% | 1004.2 hPa | 0 mm | - | 0 W/m² | - |
| 1787986526 | 35.56° C | 31% | 1004 hPa | 0 mm | - | 0 W/m² | - |
| 1787986220 | 35.56° C | 31% | 1003.9 hPa | 0 mm | - | 0 W/m² | - |
| 1787985914 | 35° C | 33% | 1003.8 hPa | 0 mm | - | 0 W/m² | - |
| 1787985614 | 35° C | 31% | 1003.8 hPa | 0 mm | - | 0 W/m² | - |
| 1787985309 | 35° C | 30% | 1003.9 hPa | 0 mm | - | 0 W/m² | - |
| 1787985008 | 35.56° C | 35% | 1003.7 hPa | 0 mm | - | 0 W/m² | - |
| 1787984703 | 35.56° C | 31% | 1003.9 hPa | 0 mm | - | 0 W/m² | - |
| 1787984398 | 35.56° C | 31% | 1003.6 hPa | 0 mm | - | 0 W/m² | - |
| 1787984097 | 35.56° C | 30% | 1003.5 hPa | 0 mm | - | 0 W/m² | - |
| 1787983792 | 35.56° C | 30% | 1003.6 hPa | 0 mm | - | 0 W/m² | - |
| 1787983491 | 36.11° C | 29% | 1003.5 hPa | 0 mm | - | 0 W/m² | - |
* Rain latest hour (hover to see other rain measurements)
** Current wind speed in m/s (hover to see current wind gust speed)